time, beta470, beta532, beta650
yyyy/mm/dd HH:MM:SS.fff, counts, counts, counts
2023/07/01 23:00:12.080, 106, 111, 80
2023/07/01 23:00:13.216, 106, 118, 78
2023/07/01 23:00:14.352, 105, 115, 81
2023/07/01 23:00:15.472, 106, 113, 85
2023/07/01 23:00:16.608, 107, 114, 79
2023/07/01 23:00:17.728, 107, 113, 79
2023/07/01 23:00:18.864, 121, 112, 76
2023/07/01 23:00:20.000, 111, 114, 80
2023/07/01 23:00:21.120, 109, 116, 76
2023/07/01 23:00:22.256, 106, 112, 76
2023/07/01 23:00:23.376, 108, 113, 91
2023/07/01 23:00:24.512, 110, 116, 112
2023/07/01 23:00:25.648, 107, 119, 77
2023/07/01 23:00:26.768, 106, 113, 82
2023/07/01 23:00:27.904, 110, 113, 88
2023/07/01 23:00:29.023, 107, 117, 77
2023/07/01 23:00:30.159, 110, 112, 105
2023/07/01 23:00:31.295, 108, 119, 79
2023/07/01 23:00:32.415, 108, 114, 81
2023/07/01 23:00:33.551, 111, 116, 77
2023/07/01 23:00:34.671, 109, 123, 79
2023/07/01 23:00:35.807, 112, 114, 82
2023/07/01 23:00:36.943, 110, 116, 78
2023/07/01 23:00:38.063, 112, 124, 76
2023/07/01 23:00:39.199, 108, 111, 81
2023/07/01 23:00:40.318, 108, 115, 89
2023/07/01 23:00:41.455, 110, 111, 86
2023/07/01 23:00:42.591, 112, 114, 79
2023/07/01 23:00:43.711, 107, 118, 80
2023/07/01 23:00:44.847, 107, 112, 80
2023/07/01 23:00:45.966, 110, 110, 77
2023/07/01 23:00:47.102, 118, 112, 78
2023/07/01 23:00:48.238, 128, 115, 77
2023/07/01 23:00:49.358, 115, 113, 78
2023/07/01 23:00:50.494, 106, 125, 80
2023/07/01 23:00:51.614, 106, 129, 79
2023/07/01 23:00:52.750, 106, 117, 79
2023/07/01 23:00:53.886, 107, 115, 78
2023/07/01 23:00:55.005, 109, 117, 108
2023/07/01 23:00:56.142, 106, 113, 171
2023/07/01 23:00:57.278, 108, 111, 83
2023/07/01 23:00:58.397, 106, 112, 112
2023/07/01 23:00:59.534, 108, 115, 76
2023/07/01 23:01:00.654, 105, 113, 79
2023/07/01 23:01:01.790, 107, 116, 84
2023/07/01 23:01:02.926, 105, 119, 78
2023/07/01 23:01:04.045, 106, 120, 78
2023/07/01 23:01:05.181, 105, 110, 77
2023/07/01 23:01:06.301, 109, 114, 78
2023/07/01 23:01:07.437, 107, 123, 77
2023/07/01 23:01:08.573, 109, 113, 78
2023/07/01 23:01:09.693, 112, 112, 78
2023/07/01 23:01:10.829, 107, 110, 78
2023/07/01 23:01:11.965, 108, 120, 78
2023/07/01 23:01:13.085, 109, 117, 78
2023/07/01 23:01:14.221, 111, 124, 75
2023/07/01 23:01:15.341, 110, 119, 79
2023/07/01 23:01:16.477, 109, 140, 79
2023/07/01 23:01:17.613, 110, 134, 75
2023/07/01 23:01:18.733, 112, 127, 76
2023/07/01 23:01:19.868, 109, 117, 79
2023/07/01 23:01:20.988, 106, 111, 77
2023/07/01 23:01:22.124, 107, 114, 76
2023/07/01 23:01:23.260, 107, 107, 79
2023/07/01 23:01:24.380, 106, 110, 77
2023/07/01 23:01:25.516, 109, 112, 76
2023/07/01 23:01:26.636, 106, 110, 76
2023/07/01 23:01:27.772, 107, 109, 78
2023/07/01 23:01:28.908, 104, 113, 81
2023/07/01 23:01:30.028, 104, 109, 76
2023/07/01 23:01:31.163, 104, 112, 78
2023/07/01 23:01:32.284, 104, 113, 75
2023/07/01 23:01:33.420, 105, 120, 74
2023/07/01 23:01:34.556, 104, 118, 76
2023/07/01 23:01:35.675, 102, 114, 76
2023/07/01 23:01:36.811, 101, 111, 77
2023/07/01 23:01:37.931, 103, 119, 76
2023/07/01 23:01:39.067, 107, 110, 76
2023/07/01 23:01:40.187, 102, 113, 80
2023/07/01 23:01:41.323, 103, 112, 86
2023/07/01 23:01:42.459, 100, 114, 72
2023/07/01 23:01:43.579, 139, 109, 78
2023/07/01 23:01:44.715, 101, 112, 78
2023/07/01 23:01:45.835, 105, 124, 76
2023/07/01 23:01:46.971, 105, 112, 78
2023/07/01 23:01:48.107, 108, 123, 73
2023/07/01 23:01:49.226, 104, 111, 71
2023/07/01 23:01:50.363, 109, 109, 77
2023/07/01 23:01:51.499, 106, 112, 81
2023/07/01 23:01:52.619, 105, 120, 73
2023/07/01 23:01:53.754, 105, 109, 78
2023/07/01 23:01:54.874, 104, 109, 73
2023/07/01 23:01:56.010, 105, 107, 78
2023/07/01 23:01:57.146, 104, 114, 75
2023/07/01 23:01:58.266, 102, 114, 74
2023/07/01 23:01:59.402, 101, 111, 74
2023/07/01 23:02:00.522, 100, 115, 74
2023/07/01 23:02:01.658, 104, 112, 78
2023/07/01 23:02:02.794, 100, 119, 77
2023/07/01 23:02:03.914, 103, 109, 76
2023/07/01 23:02:05.050, 104, 114, 83
2023/07/01 23:02:06.170, 103, 112, 76
2023/07/01 23:02:07.306, 103, 107, 70
2023/07/01 23:02:08.442, 103, 106, 72
2023/07/01 23:02:09.562, 105, 110, 70
2023/07/01 23:02:10.698, 104, 110, 75
2023/07/01 23:02:11.817, 102, 111, 79
2023/07/01 23:02:12.953, 104, 110, 73
2023/07/01 23:02:14.089, 104, 105, 80
2023/07/01 23:02:15.209, 104, 104, 76
2023/07/01 23:02:16.345, 103, 112, 74
2023/07/01 23:02:17.465, 102, 107, 76
2023/07/01 23:02:18.601, 103, 107, 74
2023/07/01 23:02:19.737, 101, 107, 76
2023/07/01 23:02:20.857, 100, 103, 72
2023/07/01 23:02:21.992, 100, 107, 73
2023/07/01 23:02:23.113, 100, 107, 74
2023/07/01 23:02:24.249, 103, 111, 73
2023/07/01 23:02:25.385, 103, 123, 73
2023/07/01 23:02:26.504, 104, 118, 75
2023/07/01 23:02:27.641, 104, 125, 70
2023/07/01 23:02:28.760, 99, 120, 74
2023/07/01 23:02:29.896, 105, 118, 74
2023/07/01 23:02:31.032, 105, 120, 74
2023/07/01 23:02:32.152, 107, 124, 69
2023/07/01 23:02:33.288, 102, 116, 71
2023/07/01 23:02:34.408, 99, 148, 79
2023/07/01 23:02:35.544, 105, 128, 75
2023/07/01 23:02:36.664, 102, 150, 69
2023/07/01 23:02:37.800, 101, 132, 69
2023/07/01 23:02:38.936, 105, 122, 73
2023/07/01 23:02:40.056, 104, 123, 77
2023/07/01 23:02:41.192, 105, 122, 70
2023/07/01 23:02:42.311, 104, 122, 78
2023/07/01 23:02:43.448, 107, 141, 72
2023/07/01 23:02:44.583, 111, 135, 73
2023/07/01 23:02:45.703, 121, 126, 74
2023/07/01 23:02:46.839, 115, 129, 74
2023/07/01 23:02:47.959, 116, 124, 73
2023/07/01 23:02:49.095, 112, 129, 74
2023/07/01 23:02:50.231, 109, 124, 75
2023/07/01 23:02:51.351, 105, 104, 71
2023/07/01 23:02:52.486, 110, 109, 72
2023/07/01 23:02:53.607, 111, 109, 76
2023/07/01 23:02:54.743, 108, 149, 70
2023/07/01 23:02:55.878, 108, 119, 75
2023/07/01 23:02:56.999, 112, 106, 73
2023/07/01 23:02:58.135, 106, 115, 75
2023/07/01 23:02:59.271, 108, 119, 70
2023/07/01 23:03:00.390, 108, 119, 85
2023/07/01 23:03:01.526, 106, 126, 75
2023/07/01 23:03:02.646, 104, 117, 75
2023/07/01 23:03:03.782, 102, 121, 73
2023/07/01 23:03:04.917, 107, 119, 69
2023/07/01 23:03:06.038, 107, 107, 74
2023/07/01 23:03:07.174, 108, 107, 71
2023/07/01 23:03:08.294, 112, 111, 75
2023/07/01 23:03:09.430, 112, 107, 83
2023/07/01 23:03:10.566, 116, 102, 71
2023/07/01 23:03:11.686, 125, 101, 73
2023/07/01 23:03:12.822, 118, 115, 72
2023/07/01 23:03:13.942, 108, 108, 71
2023/07/01 23:03:15.078, 100, 111, 71
2023/07/01 23:03:16.214, 97, 102, 75
2023/07/01 23:03:17.334, 106, 102, 69
2023/07/01 23:03:18.470, 103, 101, 70
2023/07/01 23:03:19.590, 99, 113, 73
2023/07/01 23:03:20.725, 97, 117, 69
2023/07/01 23:03:21.845, 100, 118, 73
2023/07/01 23:03:22.981, 97, 118, 72
2023/07/01 23:03:24.117, 98, 116, 73
2023/07/01 23:03:25.237, 97, 118, 73
2023/07/01 23:03:26.373, 99, 137, 76
2023/07/01 23:03:27.493, 98, 128, 70
2023/07/01 23:03:28.629, 101, 125, 74
2023/07/01 23:03:29.749, 100, 126, 71
2023/07/01 23:03:30.885, 101, 140, 73
2023/07/01 23:03:32.021, 98, 140, 71
2023/07/01 23:03:33.141, 98, 134, 69
2023/07/01 23:03:34.277, 98, 134, 75
2023/07/01 23:03:35.397, 100, 136, 70
2023/07/01 23:03:36.532, 95, 139, 72
2023/07/01 23:03:37.653, 96, 140, 72
2023/07/01 23:03:38.788, 95, 135, 69
2023/07/01 23:03:39.908, 100, 139, 74
2023/07/01 23:03:41.044, 97, 147, 79
2023/07/01 23:03:42.180, 102, 138, 88
2023/07/01 23:03:43.299, 96, 140, 72
2023/07/01 23:03:44.436, 97, 139, 74
2023/07/01 23:03:45.556, 98, 144, 75
2023/07/01 23:03:46.692, 96, 142, 73
2023/07/01 23:03:47.812, 99, 119, 74
2023/07/01 23:03:48.948, 100, 114, 71
2023/07/01 23:03:50.084, 104, 112, 67
2023/07/01 23:03:51.204, 103, 107, 69
2023/07/01 23:03:52.340, 103, 101, 70
2023/07/01 23:03:53.459, 96, 103, 69
2023/07/01 23:03:54.595, 95, 104, 71
2023/07/01 23:03:55.715, 94, 101, 66
2023/07/01 23:03:56.851, 97, 99, 72
2023/07/01 23:03:57.971, 94, 97, 70
2023/07/01 23:03:59.107, 98, 100, 65
2023/07/01 23:04:00.227, 94, 96, 69
2023/07/01 23:04:01.363, 95, 101, 72
2023/07/01 23:04:02.499, 100, 101, 71
2023/07/01 23:04:03.618, 98, 97, 69
2023/07/01 23:04:04.755, 97, 101, 67
2023/07/01 23:04:05.875, 96, 101, 68
2023/07/01 23:04:07.010, 96, 104, 74
2023/07/01 23:04:08.131, 99, 104, 68
2023/07/01 23:04:09.267, 96, 194, 71
2023/07/01 23:04:10.402, 100, 119, 69
2023/07/01 23:04:11.522, 98, 120, 74
2023/07/01 23:04:12.658, 97, 122, 69
2023/07/01 23:04:13.778, 97, 114, 71
2023/07/01 23:04:14.914, 96, 126, 74
2023/07/01 23:04:16.034, 96, 114, 77
2023/07/01 23:04:17.170, 98, 106, 73
2023/07/01 23:04:18.290, 106, 103, 70
2023/07/01 23:04:19.426, 98, 104, 73
2023/07/01 23:04:20.562, 99, 106, 80
2023/07/01 23:04:21.682, 95, 107, 76
2023/07/01 23:04:22.818, 95, 103, 68
2023/07/01 23:04:23.938, 93, 104, 72
2023/07/01 23:04:25.074, 103, 103, 69
2023/07/01 23:04:26.194, 100, 106, 67
2023/07/01 23:04:27.330, 100, 103, 73
2023/07/01 23:04:28.465, 98, 106, 70
2023/07/01 23:04:29.585, 100, 104, 68
2023/07/01 23:04:30.721, 95, 108, 70
2023/07/01 23:04:31.841, 99, 107, 80
2023/07/01 23:04:32.977, 99, 107, 96
2023/07/01 23:04:34.097, 93, 105, 93
2023/07/01 23:04:35.233, 96, 110, 97
2023/07/01 23:04:36.353, 96, 100, 98
2023/07/01 23:04:37.489, 98, 102, 96
2023/07/01 23:04:38.609, 94, 103, 96
2023/07/01 23:04:39.745, 96, 108, 101
2023/07/01 23:04:40.881, 95, 105, 97
2023/07/01 23:04:42.001, 96, 105, 95
2023/07/01 23:04:43.137, 93, 106, 92
2023/07/01 23:04:44.256, 96, 102, 93
2023/07/01 23:04:45.392, 95, 103, 96
2023/07/01 23:04:46.512, 99, 102, 94
2023/07/01 23:04:47.648, 100, 107, 91
2023/07/01 23:04:48.784, 108, 100, 94
2023/07/01 23:04:49.904, 95, 102, 92
2023/07/01 23:04:51.040, 94, 104, 93
2023/07/01 23:04:52.160, 103, 101, 94
2023/07/01 23:04:53.296, 95, 100, 97
2023/07/01 23:04:54.416, 92, 102, 96
2023/07/01 23:04:55.552, 94, 102, 94
2023/07/01 23:04:56.688, 110, 104, 94
2023/07/01 23:04:57.808, 99, 98, 94
2023/07/01 23:04:58.944, 93, 103, 93
2023/07/01 23:05:00.064, 94, 106, 97
2023/07/01 23:05:01.199, 97, 100, 89
2023/07/01 23:05:02.319, 95, 102, 91
2023/07/01 23:05:03.455, 97, 104, 91
2023/07/01 23:05:04.575, 97, 104, 91
2023/07/01 23:05:05.711, 98, 94, 93
2023/07/01 23:05:06.831, 94, 92, 91
2023/07/01 23:05:07.967, 95, 93, 92
2023/07/01 23:05:09.087, 98, 92, 92
2023/07/01 23:05:10.223, 98, 92, 92
2023/07/01 23:05:11.343, 96, 93, 94
2023/07/01 23:05:12.478, 96, 92, 87
2023/07/01 23:05:13.599, 99, 94, 72
2023/07/01 23:05:14.735, 97, 94, 73
2023/07/01 23:05:15.855, 97, 93, 75
2023/07/01 23:05:16.990, 97, 96, 72
2023/07/01 23:05:18.110, 99, 91, 70
2023/07/01 23:05:19.246, 95, 90, 73
2023/07/01 23:05:20.366, 96, 96, 69
2023/07/01 23:05:21.502, 98, 94, 64
2023/07/01 23:05:22.622, 97, 95, 65
2023/07/01 23:05:23.758, 97, 94, 71
2023/07/01 23:05:24.894, 100, 90, 66
2023/07/01 23:05:26.014, 98, 92, 66
2023/07/01 23:05:27.150, 94, 94, 66
2023/07/01 23:05:28.270, 97, 95, 68
2023/07/01 23:05:29.406, 95, 91, 67
2023/07/01 23:05:30.526, 97, 94, 73
2023/07/01 23:05:31.662, 94, 91, 65
2023/07/01 23:05:32.781, 95, 92, 69
2023/07/01 23:05:33.901, 97, 91, 69
2023/07/01 23:05:35.037, 94, 96, 70
2023/07/01 23:05:36.157, 92, 97, 68
2023/07/01 23:05:37.293, 93, 95, 69
2023/07/01 23:05:38.413, 92, 98, 69
2023/07/01 23:05:39.549, 93, 98, 67
2023/07/01 23:05:40.669, 92, 97, 69
2023/07/01 23:05:41.805, 94, 101, 73
2023/07/01 23:05:42.941, 94, 100, 68
2023/07/01 23:05:44.061, 94, 97, 72
2023/07/01 23:05:45.197, 96, 97, 67
2023/07/01 23:05:46.317, 95, 96, 73
2023/07/01 23:05:47.453, 93, 97, 73
2023/07/01 23:05:48.573, 98, 97, 67
2023/07/01 23:05:49.709, 95, 97, 67
2023/07/01 23:05:50.829, 93, 98, 67
2023/07/01 23:05:51.965, 96, 100, 67
2023/07/01 23:05:53.085, 100, 95, 70
2023/07/01 23:05:54.220, 101, 94, 67
2023/07/01 23:05:55.340, 100, 98, 67
2023/07/01 23:05:56.476, 97, 109, 66
2023/07/01 23:05:57.596, 96, 93, 69
2023/07/01 23:05:58.732, 102, 113, 72
2023/07/01 23:05:59.868, 103, 100, 72
2023/07/01 23:06:00.988, 102, 109, 94
2023/07/01 23:06:02.124, 95, 97, 93
2023/07/01 23:06:03.244, 92, 97, 92
2023/07/01 23:06:04.380, 91, 96, 101
2023/07/01 23:06:05.500, 93, 96, 133
2023/07/01 23:06:06.636, 92, 100, 221
2023/07/01 23:06:07.756, 94, 99, 195
2023/07/01 23:06:08.892, 93, 95, 70
2023/07/01 23:06:10.011, 93, 102, 72
2023/07/01 23:06:11.147, 92, 97, 73
2023/07/01 23:06:12.283, 95, 98, 78
2023/07/01 23:06:13.404, 91, 95, 67
2023/07/01 23:06:14.538, 90, 103, 71
2023/07/01 23:06:15.658, 92, 100, 67
2023/07/01 23:06:16.795, 94, 99, 64
2023/07/01 23:06:17.915, 91, 99, 64
2023/07/01 23:06:19.051, 94, 98, 71
2023/07/01 23:06:20.171, 93, 99, 75
2023/07/01 23:06:21.307, 91, 102, 67
2023/07/01 23:06:22.427, 93, 100, 69
2023/07/01 23:06:23.563, 96, 100, 68
2023/07/01 23:06:24.683, 90, 91, 68
2023/07/01 23:06:25.819, 96, 92, 65
2023/07/01 23:06:26.938, 98, 92, 72
2023/07/01 23:06:28.075, 96, 91, 74
2023/07/01 23:06:29.194, 106, 94, 68
2023/07/01 23:06:30.330, 102, 105, 70
2023/07/01 23:06:31.450, 104, 101, 67
2023/07/01 23:06:32.586, 103, 101, 69
2023/07/01 23:06:33.722, 106, 94, 64
2023/07/01 23:06:34.842, 99, 107, 69
2023/07/01 23:06:35.977, 94, 90, 67
2023/07/01 23:06:37.098, 96, 94, 67
2023/07/01 23:06:38.234, 92, 96, 65
2023/07/01 23:06:39.354, 92, 94, 66
2023/07/01 23:06:40.490, 90, 91, 70
2023/07/01 23:06:41.609, 92, 92, 62
2023/07/01 23:06:42.746, 94, 91, 66
2023/07/01 23:06:43.865, 91, 90, 69
2023/07/01 23:06:45.001, 95, 91, 68
2023/07/01 23:06:46.121, 94, 89, 71
2023/07/01 23:06:47.257, 93, 92, 64
2023/07/01 23:06:48.377, 95, 88, 65
2023/07/01 23:06:49.513, 94, 90, 61
2023/07/01 23:06:50.633, 95, 89, 67
2023/07/01 23:06:51.769, 93, 89, 68
2023/07/01 23:06:52.889, 107, 92, 68
2023/07/01 23:06:54.025, 107, 89, 66
2023/07/01 23:06:55.145, 109, 89, 65
2023/07/01 23:06:56.281, 108, 91, 66
2023/07/01 23:06:57.401, 92, 92, 67
2023/07/01 23:06:58.536, 90, 91, 65
2023/07/01 23:06:59.657, 92, 92, 64
2023/07/01 23:07:00.793, 90, 92, 63
2023/07/01 23:07:01.912, 94, 94, 66
2023/07/01 23:07:03.048, 93, 93, 63
2023/07/01 23:07:04.169, 92, 92, 66
2023/07/01 23:07:05.304, 93, 92, 69
2023/07/01 23:07:06.424, 95, 94, 75
2023/07/01 23:07:07.560, 89, 91, 69
2023/07/01 23:07:08.680, 90, 92, 67
2023/07/01 23:07:09.816, 97, 89, 66
2023/07/01 23:07:10.936, 92, 90, 67
2023/07/01 23:07:12.072, 94, 89, 61
2023/07/01 23:07:13.192, 90, 90, 67
2023/07/01 23:07:14.328, 92, 91, 68
2023/07/01 23:07:15.448, 94, 87, 67
2023/07/01 23:07:16.583, 91, 88, 67
2023/07/01 23:07:17.704, 91, 92, 70
2023/07/01 23:07:18.840, 90, 95, 65
2023/07/01 23:07:19.960, 90, 89, 67
2023/07/01 23:07:21.095, 90, 92, 65
2023/07/01 23:07:22.215, 93, 90, 67
2023/07/01 23:07:23.351, 94, 89, 66
2023/07/01 23:07:24.470, 93, 90, 65
2023/07/01 23:07:25.607, 91, 92, 66
2023/07/01 23:07:26.727, 91, 92, 66
2023/07/01 23:07:27.863, 93, 90, 62
2023/07/01 23:07:28.983, 91, 92, 60
2023/07/01 23:07:30.118, 92, 92, 67
2023/07/01 23:07:31.239, 90, 91, 67
2023/07/01 23:07:32.375, 93, 91, 67
2023/07/01 23:07:33.495, 91, 93, 65
2023/07/01 23:07:34.630, 93, 92, 68
2023/07/01 23:07:35.751, 91, 90, 68
2023/07/01 23:07:36.886, 91, 91, 64
2023/07/01 23:07:38.006, 91, 95, 70
2023/07/01 23:07:39.142, 90, 96, 68
2023/07/01 23:07:40.262, 89, 89, 69
2023/07/01 23:07:41.398, 88, 90, 69
2023/07/01 23:07:42.518, 87, 93, 65
2023/07/01 23:07:43.654, 92, 91, 68
2023/07/01 23:07:44.774, 88, 97, 67
2023/07/01 23:07:45.910, 92, 92, 68
2023/07/01 23:07:47.030, 93, 89, 67
2023/07/01 23:07:48.165, 91, 90, 68
2023/07/01 23:07:49.286, 92, 91, 67
2023/07/01 23:07:50.422, 89, 89, 64
2023/07/01 23:07:51.542, 92, 89, 65
2023/07/01 23:07:52.678, 91, 88, 65
2023/07/01 23:07:53.797, 92, 92, 64
2023/07/01 23:07:54.933, 92, 96, 63
2023/07/01 23:07:56.053, 92, 99, 70
2023/07/01 23:07:57.189, 93, 94, 65
2023/07/01 23:07:58.309, 91, 91, 69
2023/07/01 23:07:59.445, 92, 92, 68
2023/07/01 23:08:00.565, 93, 92, 67
2023/07/01 23:08:01.701, 95, 91, 69
2023/07/01 23:08:02.821, 89, 91, 63
2023/07/01 23:08:03.957, 90, 90, 67
2023/07/01 23:08:05.077, 94, 89, 65
2023/07/01 23:08:06.213, 93, 89, 70
2023/07/01 23:08:07.333, 89, 93, 69
2023/07/01 23:08:08.468, 87, 87, 66
2023/07/01 23:08:09.589, 90, 93, 64
2023/07/01 23:08:10.724, 90, 94, 67
2023/07/01 23:08:11.844, 97, 91, 65
2023/07/01 23:08:12.980, 90, 89, 66
2023/07/01 23:08:14.100, 90, 94, 64
2023/07/01 23:08:15.236, 89, 92, 70
2023/07/01 23:08:16.357, 92, 89, 72
2023/07/01 23:08:17.492, 92, 90, 65
2023/07/01 23:08:18.612, 92, 89, 63
2023/07/01 23:08:19.747, 90, 92, 64
2023/07/01 23:08:20.868, 95, 91, 62
2023/07/01 23:08:22.004, 92, 88, 65
2023/07/01 23:08:23.124, 92, 88, 63
2023/07/01 23:08:24.260, 89, 87, 65
2023/07/01 23:08:25.380, 90, 90, 65
2023/07/01 23:08:26.516, 90, 91, 67
2023/07/01 23:08:27.636, 96, 88, 63
2023/07/01 23:08:28.771, 93, 90, 67
2023/07/01 23:08:29.891, 90, 90, 62
2023/07/01 23:08:31.027, 89, 94, 69
2023/07/01 23:08:32.147, 92, 90, 69
2023/07/01 23:08:33.283, 88, 88, 69
2023/07/01 23:08:34.403, 91, 90, 64
2023/07/01 23:08:35.539, 90, 91, 68
2023/07/01 23:08:36.659, 87, 89, 64
2023/07/01 23:08:37.794, 90, 92, 64
2023/07/01 23:08:38.915, 87, 93, 66
2023/07/01 23:08:40.051, 91, 91, 66
2023/07/01 23:08:41.171, 92, 89, 66
2023/07/01 23:08:42.307, 90, 91, 71
2023/07/01 23:08:43.427, 92, 87, 68
2023/07/01 23:08:44.562, 92, 93, 68
2023/07/01 23:08:45.682, 91, 89, 65
2023/07/01 23:08:46.818, 93, 91, 66
2023/07/01 23:08:47.938, 88, 91, 65
2023/07/01 23:08:49.074, 90, 90, 63
2023/07/01 23:08:50.194, 87, 89, 67
2023/07/01 23:08:51.330, 88, 89, 65
2023/07/01 23:08:52.450, 91, 88, 67
2023/07/01 23:08:53.586, 93, 91, 69
2023/07/01 23:08:54.706, 88, 90, 60
2023/07/01 23:08:55.842, 92, 88, 67
2023/07/01 23:08:56.962, 87, 86, 65
2023/07/01 23:08:58.098, 92, 90, 64
2023/07/01 23:08:59.217, 92, 87, 65
2023/07/01 23:09:00.353, 87, 88, 68
2023/07/01 23:09:01.473, 91, 90, 67
2023/07/01 23:09:02.609, 90, 89, 69
2023/07/01 23:09:03.728, 93, 87, 70
2023/07/01 23:09:04.865, 92, 87, 69
2023/07/01 23:09:05.984, 91, 88, 67
2023/07/01 23:09:07.121, 90, 90, 67
2023/07/01 23:09:08.241, 90, 84, 64
2023/07/01 23:09:09.377, 89, 87, 67
2023/07/01 23:09:10.497, 89, 90, 67
2023/07/01 23:09:11.633, 94, 91, 67
2023/07/01 23:09:12.752, 91, 86, 64
2023/07/01 23:09:13.888, 88, 89, 66
2023/07/01 23:09:15.008, 89, 88, 65
2023/07/01 23:09:16.145, 91, 94, 61
2023/07/01 23:09:17.265, 97, 86, 66
2023/07/01 23:09:18.401, 97, 86, 64
2023/07/01 23:09:19.520, 99, 84, 67
2023/07/01 23:09:20.656, 100, 85, 63
2023/07/01 23:09:21.776, 93, 88, 64
2023/07/01 23:09:22.912, 91, 86, 67
2023/07/01 23:09:24.032, 92, 88, 66
2023/07/01 23:09:25.168, 88, 91, 68
2023/07/01 23:09:26.288, 92, 91, 68
2023/07/01 23:09:27.423, 91, 87, 65
2023/07/01 23:09:28.544, 91, 88, 65
2023/07/01 23:09:29.680, 90, 86, 66
2023/07/01 23:09:30.800, 92, 85, 65
2023/07/01 23:09:31.936, 92, 87, 66
2023/07/01 23:09:33.056, 91, 90, 64
2023/07/01 23:09:34.192, 92, 88, 63
2023/07/01 23:09:35.311, 90, 88, 68
2023/07/01 23:09:36.447, 93, 88, 66
2023/07/01 23:09:37.567, 94, 90, 67
2023/07/01 23:09:38.703, 92, 88, 66
2023/07/01 23:09:39.823, 92, 92, 67
2023/07/01 23:09:40.959, 93, 89, 65
2023/07/01 23:09:42.079, 91, 86, 61
2023/07/01 23:09:43.215, 94, 89, 66
2023/07/01 23:09:44.335, 86, 87, 65
2023/07/01 23:09:45.471, 89, 83, 70
2023/07/01 23:09:46.591, 90, 88, 66
2023/07/01 23:09:47.727, 92, 89, 66
2023/07/01 23:09:48.847, 90, 89, 66
2023/07/01 23:09:49.982, 92, 86, 65
2023/07/01 23:09:51.103, 93, 89, 70
2023/07/01 23:09:52.238, 92, 86, 65
2023/07/01 23:09:53.358, 95, 89, 67
2023/07/01 23:09:54.493, 95, 86, 64
2023/07/01 23:09:55.614, 92, 87, 65
2023/07/01 23:09:56.750, 91, 86, 68
2023/07/01 23:09:57.870, 89, 86, 67
2023/07/01 23:09:59.006, 90, 86, 70
2023/07/01 23:10:00.125, 92, 86, 72
2023/07/01 23:10:01.262, 89, 88, 70
2023/07/01 23:10:02.382, 89, 89, 65
2023/07/01 23:10:03.518, 90, 86, 68
2023/07/01 23:10:04.638, 92, 86, 64
2023/07/01 23:10:05.774, 90, 89, 68
2023/07/01 23:10:06.894, 90, 85, 65
2023/07/01 23:10:08.029, 87, 88, 64
2023/07/01 23:10:09.149, 91, 87, 68
2023/07/01 23:10:10.285, 89, 86, 70
2023/07/01 23:10:11.406, 91, 88, 63
2023/07/01 23:10:12.541, 87, 88, 65
2023/07/01 23:10:13.661, 89, 87, 64
2023/07/01 23:10:14.797, 90, 89, 67
2023/07/01 23:10:15.917, 89, 92, 67
2023/07/01 23:10:17.053, 91, 87, 63
2023/07/01 23:10:18.173, 88, 86, 70
2023/07/01 23:10:19.309, 89, 86, 65
2023/07/01 23:10:20.429, 89, 91, 64
2023/07/01 23:10:21.564, 92, 88, 67
2023/07/01 23:10:22.685, 90, 88, 66
2023/07/01 23:10:23.821, 91, 85, 68
2023/07/01 23:10:24.941, 89, 84, 67
2023/07/01 23:10:26.076, 90, 89, 66
2023/07/01 23:10:27.196, 90, 89, 67
2023/07/01 23:10:28.332, 90, 89, 67
2023/07/01 23:10:29.452, 86, 90, 65
2023/07/01 23:10:30.588, 90, 88, 65
2023/07/01 23:10:31.708, 86, 88, 65
2023/07/01 23:10:32.844, 91, 91, 64
2023/07/01 23:10:33.964, 90, 87, 64
2023/07/01 23:10:35.100, 91, 84, 64
2023/07/01 23:10:36.220, 90, 84, 67
2023/07/01 23:10:37.356, 89, 87, 66
2023/07/01 23:10:38.476, 91, 88, 66
2023/07/01 23:10:39.612, 91, 86, 67
2023/07/01 23:10:40.732, 88, 88, 65
2023/07/01 23:10:41.867, 88, 87, 63
2023/07/01 23:10:42.987, 89, 87, 68
2023/07/01 23:10:44.123, 88, 86, 59
2023/07/01 23:10:45.243, 86, 87, 63
2023/07/01 23:10:46.379, 91, 86, 60
2023/07/01 23:10:47.499, 88, 86, 63
2023/07/01 23:10:48.635, 86, 89, 67
2023/07/01 23:10:49.754, 91, 85, 60
2023/07/01 23:10:50.891, 92, 90, 67
2023/07/01 23:10:52.011, 91, 87, 67
2023/07/01 23:10:53.147, 89, 87, 67
2023/07/01 23:10:54.267, 91, 87, 66
2023/07/01 23:10:55.403, 90, 88, 66
2023/07/01 23:10:56.523, 89, 88, 68
2023/07/01 23:10:57.658, 90, 90, 67
2023/07/01 23:10:58.779, 90, 86, 61
2023/07/01 23:10:59.915, 90, 85, 63
2023/07/01 23:11:01.034, 87, 89, 64
2023/07/01 23:11:02.170, 89, 86, 62
2023/07/01 23:11:03.290, 92, 89, 68
2023/07/01 23:11:04.426, 90, 89, 65
2023/07/01 23:11:05.546, 86, 88, 67
2023/07/01 23:11:06.682, 86, 89, 65
2023/07/01 23:11:07.802, 90, 86, 62
2023/07/01 23:11:08.938, 91, 87, 70
2023/07/01 23:11:10.058, 87, 86, 65
2023/07/01 23:11:11.194, 87, 86, 63
2023/07/01 23:11:12.314, 93, 85, 65
2023/07/01 23:11:13.450, 90, 86, 67
2023/07/01 23:11:14.570, 93, 84, 67
2023/07/01 23:11:15.705, 93, 88, 61
2023/07/01 23:11:16.826, 92, 88, 66
2023/07/01 23:11:17.961, 93, 85, 61
2023/07/01 23:11:19.081, 98, 87, 63
2023/07/01 23:11:20.217, 93, 86, 63
2023/07/01 23:11:21.337, 94, 86, 63
2023/07/01 23:11:22.473, 91, 85, 65
2023/07/01 23:11:23.593, 96, 86, 65
2023/07/01 23:11:24.729, 96, 84, 63
2023/07/01 23:11:25.849, 96, 86, 62
2023/07/01 23:11:26.984, 98, 83, 56
2023/07/01 23:11:28.105, 93, 89, 66
2023/07/01 23:11:29.240, 85, 88, 64
2023/07/01 23:11:30.361, 85, 85, 66
2023/07/01 23:11:31.497, 95, 87, 66
2023/07/01 23:11:32.617, 89, 88, 62
2023/07/01 23:11:33.752, 89, 86, 67
2023/07/01 23:11:34.872, 87, 82, 65
2023/07/01 23:11:36.008, 91, 87, 67
2023/07/01 23:11:37.128, 88, 86, 68
2023/07/01 23:11:38.263, 92, 91, 64
2023/07/01 23:11:39.384, 89, 87, 67
2023/07/01 23:11:40.520, 87, 85, 63
2023/07/01 23:11:41.640, 90, 86, 65
2023/07/01 23:11:42.775, 91, 89, 68
2023/07/01 23:11:43.896, 90, 86, 65
2023/07/01 23:11:45.032, 89, 86, 66
2023/07/01 23:11:46.152, 89, 87, 64
2023/07/01 23:11:47.287, 90, 85, 65
2023/07/01 23:11:48.407, 91, 88, 64
2023/07/01 23:11:49.544, 90, 84, 66
2023/07/01 23:11:50.664, 88, 87, 66
2023/07/01 23:11:51.799, 90, 88, 63
2023/07/01 23:11:52.919, 89, 86, 65
2023/07/01 23:11:54.055, 90, 85, 65
2023/07/01 23:11:55.175, 90, 86, 62
2023/07/01 23:11:56.311, 91, 87, 65
2023/07/01 23:11:57.431, 86, 84, 62
2023/07/01 23:11:58.567, 86, 85, 66
2023/07/01 23:11:59.687, 87, 84, 64
2023/07/01 23:12:00.823, 92, 86, 64
2023/07/01 23:12:01.943, 89, 90, 66
2023/07/01 23:12:03.079, 86, 86, 69
2023/07/01 23:12:04.199, 92, 87, 63
2023/07/01 23:12:05.335, 89, 86, 64